DELTA 1 DEB

Satellite information

Favourite Embed

Satellite Type and Status

DEBRISIN ORBIT

Key statistics

Satellite DELTA 1 DEB at a glance.

Uptime

17398

Days in orbit

Revolutions

≈ 13.9

Per day

Orbit

SSO

Sun Synchronous Orbit

Inclination

98.9

Latest

Satellite identification and parameters

Extended collection of information and parameters for DELTA 1 DEB.

Object identification

Identified? True

Debris? True

Object name: DELTA 1 DEB

International designator: 1978-026GT

Object number (NORAD): 15788

Object ID (CCSDS): 15788

Country: UNITED STATES OF AMERICA (US)

Current information (Y/N): Y

RCS size: SMALL

Orbital parameters

Period: 103.367 minutes

Inclination: 98.8888 deg

SMA: 7295.928 km

Apoapsis: 1004.122 km

Periapsis: 831.464 km

RAAN: 212.1254 deg

Eccentricy: 0.01183249

Argument of periapsis: 159.481 deg

Mean anomaly: 230.5957 deg

Mean motion: 13.93098918 rev/day

Mean motion (dot): 0.00001095 rev/day2

B* drag term: 0.00082447666 1/REarth

Two-line elements (TLE)

Creation date: Oct. 21, 2025, 3:26 a.m.

Reference frame: TEME

Reference center: EARTH

Epoch: Oct. 20, 2025, 6:11 p.m. UTC

TLE line 0: 0 DELTA 1 DEB

TLE line 1: 1 15788U 78026GT 25293.75831413 .00001095 00000-0 82448-3 0 9999

TLE line 2: 2 15788 98.8888 212.1254 0118325 159.4810 230.5957 13.93098918169700

Live tracking on map

Real-time ground track for satellite DELTA 1 DEB.

In-orbit conjunctions

A list of the most updated potential collisions computed for object DELTA 1 DEB.

Target Orbit TCA Probability of collision Miss distance Type
NADEZHDA 7 LEO 2024-11-02 13:10:24 0.0003102808 132.0 (m) PAYLOAD

Associated space launch

Earth observation satellite

DELTA 1 DEB was lifted into orbit during the mission ‘Delta 2910 | Landsat 3’, on board a Delta 2910 space rocket.

The launch took place on March 5, 1978, 5:54 p.m. from Space Launch Complex 2W.

For more information about the launch, click the button.

Launch to space Delta 2910 | Landsat 3
Delta 2910 | Landsat 3

Agency: N/A

Status: Launch Successful

Launch date: March 5, 1978, 5:54 p.m. UTC

Rocket: Delta 2910

Launch pad: Space Launch Complex 2W

Location: Vandenberg SFB, CA, USA

...

Latest news about this satellite

There are no fresh news available about this satellite. Check back as we update our databases every day.


Newsletter sign-up

Weekly statistics, charts and insights to help you stay on top of the space industry.